This demonstration page uses our WeatherBlox Daily Observations layout. Learn more.

Left ArrowRight Arrow

39.12711, -84.51439

Hourly Observations for May 19, 2022

Temp ( °F °C ) Dew Point ( °F °C ) Humidity (%) Winds ( mph kmh ) Pressure ( in mb ) Visibility ( mi km ) Precip ( " mm )
12:53 am 00:53 Mostly Cloudy 64 17.8 63 17.2 96 96 W 6 9 29.79 1009 10 16 0.00 0.00
1:01 am 01:01 Partly Cloudy 64 17.8 62 16.7 93 93 W 5 7 29.80 1009 10 16 0.00 0.00
1:53 am 01:53 Mostly Clear 63 17.2 62 16.7 97 97 NW 5 7 29.79 1009 10 16 0.00 0.00
2:23 am 02:23 Clear with Mist and Fog 59 15 59 15 100 100 SSW 3 6 29.80 1009 2 2 0.00 0.00
2:43 am 02:43 Clear with Mist and Fog 60 15.6 60 15.6 100 100 WNW 3 6 29.80 1009 3 5 0.00 0.00
2:53 am 02:53 Clear 61 16.1 60 15.6 97 97 VRB 3 6 29.79 1009 9 14 0.00 0.00
3:08 am 03:08 Clear with Mist and Fog 59 15 59 15 100 100 Calm 29.79 1009 2 3 0.00 0.00
3:19 am 03:19 Clear with Mist and Fog 60 15.6 60 15.6 100 100 Calm 29.79 1009 3 5 0.00 0.00
3:45 am 03:45 Clear with Mist and Fog 58 14.4 58 14.4 100 100 S 3 6 29.79 1009 2 2 0.00 0.00
3:53 am 03:53 Clear with Mist and Fog 57 13.9 57 13.9 100 100 S 5 7 29.78 1008 1 2 0.00 0.00
3:57 am 03:57 Clear with Mist and Fog 57 13.9 57 13.9 100 100 Calm 29.79 1009 3 5 0.00 0.00
4:13 am 04:13 Clear with Mist and Fog 58 14.4 58 14.4 100 100 Calm 29.79 1009 2 2 0.00 0.00
4:21 am 04:21 Mostly Cloudy with Fog 58 14.4 58 14.4 100 100 Calm 29.79 1009 1 1 0.00 0.00
4:33 am 04:33 Mostly Clear with Mist and Fog 58 14.4 58 14.4 100 100 Calm 29.79 1009 1 2 0.00 0.00
4:39 am 04:39 Mostly Cloudy with Mist and Fog 57 13.9 57 13.9 100 100 Calm 29.79 1009 1 1 0.00 0.00
4:53 am 04:53 Mostly Cloudy with Fog 57 13.9 57 13.9 100 100 SW 3 6 29.79 1009 1 1 0.00 0.00
5:00 am 05:00 Mostly Cloudy with Fog 57 13.9 57 13.9 100 100 SW 6 9 29.80 1009 0 0 0.00 0.00
5:07 am 05:07 Mostly Cloudy with Mist and Fog 60 15.6 60 15.6 100 100 SSW 7 11 29.80 1009 1 2 0.00 0.00
5:10 am 05:10 Mostly Cloudy with Mist and Fog 60 15.6 60 15.6 100 100 SW 6 9 29.80 1009 3 5 0.00 0.00
5:53 am 05:53 Cloudy with Mist and Fog 61 16.1 61 16.1 100 100 SSW 6 9 29.80 1009 4 6 0.00 0.00
6:53 am 06:53 Cloudy with Mist and Fog 62 16.7 62 16.7 100 100 SW 3 6 29.80 1009 2 3 0.00 0.00
7:49 am 07:49 Cloudy with Mist and Fog 63 17 63 17 100 100 SSW 6 9 29.82 1010 2 3 0.00 0.00
7:53 am 07:53 Cloudy with Mist and Fog 62 16.7 62 16.7 100 100 S 6 9 29.83 1010 2 3 0.00 0.00
8:00 am 08:00 Cloudy with Mist and Fog 62 16.7 62 16.7 100 100 S 6 9 29.82 1010 2 3 0.00 0.00
8:44 am 08:44 Cloudy with Mist and Fog 63 17.2 63 17.2 100 100 Calm 29.82 1010 2 3 0.00 0.00
8:53 am 08:53 Cloudy with Mist and Fog 63 17.2 63 17.2 100 100 S 6 9 29.83 1010 2 3 0.00 0.00
9:41 am 09:41 Cloudy with Mist and Fog 64 17.8 64 17.8 100 100 S 7 11 29.84 1011 2 3 0.00 0.00
9:53 am 09:53 Cloudy with Mist and Fog 65 18.3 64 17.8 97 97 SSW 6 9 29.84 1010 2 3 0.00 0.00
10:53 am 10:53 Cloudy with Mist and Fog 66 18.9 65 18.3 96 96 S 7 11 29.84 1011 3 4 0.00 0.00
11:26 am 11:26 Cloudy with Mist and Fog 69 20.6 66 18.9 90 90 S 7 11 29.83 1010 3 5 0.00 0.00
11:53 am 11:53 Cloudy with Mist and Fog 69 20.6 66 18.9 90 90 S 3 6 29.84 1010 4 6 0.00 0.00
12:20 pm 12:20 Cloudy with Haze 72 22.2 67 19.4 84 84 S 8 13 29.81 1010 4 6 0.00 0.00
12:53 pm 12:53 Mostly Cloudy with Haze 74 23.3 68 20 82 82 S 7 11 29.80 1009 6 10 0.00 0.00
1:53 pm 13:53 Mostly Cloudy 78 25.6 69 20.6 74 74 VRB 3 6 29.78 1009 10 16 0.00 0.00
2:53 pm 14:53 Mostly Cloudy 80 26.7 67 19.4 64 64 S 8 13 29.75 1007 10 16 0.00 0.00
3:00 pm 15:00 Partly Cloudy 81 27.2 68 20 65 65 VRB 7 11 29.74 1007 10 16 0.00 0.00
3:53 pm 15:53 Partly Cloudy 82 27.8 66 18.9 58 58 S 6 9 29.71 1006 10 16 0.00 0.00
4:53 pm 16:53 Partly Cloudy 82 27.8 65 18.3 56 56 S 10 17 29.71 1006 10 16 0.00 0.00
5:53 pm 17:53 Partly Cloudy 80 26.7 67 19.4 64 64 S 9 15 29.71 1006 10 16 0.00 0.00
6:53 pm 18:53 Partly Cloudy 79 26.1 66 18.9 65 65 ESE 3 6 29.68 1005 10 16 0.00 0.00
7:30 pm 19:30 Mostly Cloudy with Thunderstorms 74 23.3 70 21.1 88 88 S 6 9 29.69 1006 10 16 0.00 0.00
7:53 pm 19:53 Mostly Cloudy with Thunderstorms 72 22.2 70 21.1 94 94 S 5 7 29.70 1006 10 16 0.00 0.00
8:32 pm 20:32 Mostly Cloudy with Thunderstorms 72 22.2 71 21.7 97 97 WNW 13 20 29.71 1006 3 5 0.17 4.32
8:53 pm 20:53 Cloudy with Thunderstorms 69 20.6 67 19.4 93 93 Calm 29.70 1006 7 11 0.28 7.11
9:17 pm 21:17 Cloudy with Strong Thunderstorms 64 17.8 63 17.2 96 96 W 29 46 29.82 1010 4 6 0.56 14.22
9:24 pm 21:24 Cloudy with Strong Thunderstorms 63 17.2 62 16.7 97 97 W 29 46 29.79 1009 4 6 0.72 18.29
9:47 pm 21:47 Windy with Storms Likely 63 17 63 17 100 100 W 29 46 29.73 1007 4 6 0.77 19.56
9:53 pm 21:53 Cloudy with Thunderstorms 62 16.7 62 16.7 100 100 E 5 7 29.72 1007 7 11 0.78 19.81
10:51 pm 22:51 Partly Cloudy with Nearby Thunderstorms 63 17 63 17 100 100 E 3 6 29.73 1007 7 11 0.02 0.51
10:53 pm 22:53 Partly Cloudy with Nearby Thunderstorms 63 17.2 63 17.2 100 100 E 3 6 29.73 1007 7 11 0.02 0.51
11:31 pm 23:31 Mostly Cloudy with Light Rain 63 17.2 63 17.2 100 100 Calm 29.68 1005 10 16 0.04 1.02
11:53 pm 23:53 Mostly Clear 63 17.2 62 16.7 97 97 SSW 7 11 29.69 1006 10 16 0.04 1.02

Powered by AerisWeather